W8KHW Weather Reports


time (UTC)temp
F
wind
direction
speed
knots
gust
knots
rain 1hr
in
rain 24hr
in
rain mn
in
humidity
%
barometer
mb
20260506234403 55 260 1.7 5.2 0.00 0.56 0.26 56 1013.9
20260506233542 55 183 0.9 3.5 0.00 0.56 0.26 56 1013.7
20260506232722 55 140 0.9 4.3 0.00 0.56 0.26 56 1013.5
20260506231902 55 282 0.9 6.1 0.00 0.56 0.26 55 1013.9
20260506231041 55 253 1.7 7.8 0.00 0.57 0.26 54 1014.1
20260506230221 56 242 0.9 3.5 0.00 0.57 0.26 57 1014.1
20260506225401 56 237 0.9 3.5 0.00 0.57 0.26 56 1014.0
20260506224541 56 238 0.9 4.3 0.00 0.57 0.26 58 1014.0
20260506223721 55 233 1.7 3.5 0.00 0.57 0.26 56 1014.1
20260506222901 56 188 0.9 5.2 0.00 0.57 0.26 56 1014.3
20260506222040 56 248 1.7 4.3 0.00 0.58 0.26 55 1014.3
20260506221220 56 251 1.7 5.2 0.00 0.59 0.26 52 1014.2
20260506220400 56 258 1.7 10.4 0.00 0.60 0.26 51 1013.8
20260506215540 57 64 1.7 8.7 0.00 0.61 0.26 55 1013.7
20260506214720 57 258 1.7 5.2 0.00 0.62 0.26 52 1013.7
20260506213859 57 21 1.7 11.3 0.00 0.64 0.26 53 1013.4
20260506213040 56 43 1.7 11.3 0.00 0.65 0.26 54 1013.2
20260506212219 56 27 2.6 13.9 0.00 0.67 0.26 56 1013.4
20260506211359 57 322 1.7 7.0 0.00 0.70 0.26 54 1013.3
20260506210539 57 298 1.7 13.0 0.00 0.70 0.26 55 1013.3
20260506205718 57 27 1.7 13.0 0.00 0.70 0.26 54 1013.3
20260506204858 57 331 1.7 8.7 0.00 0.70 0.26 54 1013.2
20260506204038 56 252 2.6 7.0 0.00 0.70 0.26 55 1013.4
20260506203218 57 7 2.6 11.3 0.00 0.70 0.26 54 1013.5
20260506202357 58 9 2.6 13.0 0.00 0.70 0.26 52 1013.3
20260506201537 58 246 2.6 8.7 0.00 0.70 0.26 50 1013.2
20260506200717 57 255 1.7 7.8 0.00 0.70 0.26 53 1013.1
20260506195856 57 256 2.6 12.2 0.00 0.70 0.26 52 1012.9
20260506195036 57 258 2.6 14.8 0.00 0.70 0.26 52 1013.3
20260506194216 58 258 2.6 9.6 0.00 0.70 0.26 54 1013.0
20260506193356 58 340 2.6 13.0 0.00 0.70 0.26 53 1013.0
20260506192536 58 252 2.6 7.8 0.00 0.70 0.26 54 1012.9
20260506191715 58 254 2.6 8.7 0.00 0.70 0.26 53 1013.2
20260506190855 59 252 2.6 13.9 0.00 0.70 0.26 52 1012.8
20260506190035 60 280 2.6 11.3 0.00 0.70 0.26 52 1013.1
20260506185215 60 340 2.6 8.7 0.00 0.70 0.26 54 1012.9
20260506184355 60 279 2.6 10.4 0.00 0.70 0.26 52 1012.8
20260506183535 60 326 3.5 10.4 0.00 0.70 0.26 50 1012.8
20260506182715 60 278 2.6 12.2 0.00 0.70 0.26 50 1013.1
20260506181855 61 30 2.6 12.2 0.00 0.70 0.26 51 1013.1
20260506181034 60 3 2.6 13.0 0.00 0.70 0.26 56 1013.0
20260506180214 60 292 3.5 12.2 0.00 0.70 0.26 53 1013.0
20260506175354 60 246 2.6 9.6 0.00 0.70 0.26 54 1013.1
20260506174534 59 254 2.6 9.6 0.00 0.70 0.26 53 1013.1
20260506173714 59 320 2.6 8.7 0.00 0.70 0.26 52 1013.2
20260506172854 59 271 2.6 8.7 0.00 0.70 0.26 52 1013.2
20260506172033 61 44 3.5 11.3 0.00 0.70 0.26 52 1013.2
20260506171213 59 283 2.6 11.3 0.00 0.70 0.26 55 1012.9
20260506170353 58 255 2.6 8.7 0.00 0.70 0.26 57 1013.2
20260506165533 59 262 2.6 10.4 0.00 0.70 0.26 53 1013.3
20260506164713 58 270 2.6 9.6 0.00 0.70 0.26 57 1013.2
20260506163852 58 288 2.6 9.6 0.00 0.70 0.26 56 1013.1
20260506163032 59 20 2.6 13.9 0.00 0.70 0.26 58 1013.5
20260506162212 58 48 3.5 15.6 0.00 0.70 0.26 63 1013.4
20260506161352 57 309 1.7 15.6 0.00 0.70 0.26 58 1013.4
20260506160531 56 358 1.7 8.7 0.00 0.70 0.26 60 1012.9
20260506155711 57 359 1.7 8.7 0.00 0.70 0.26 59 1012.8
20260506154851 54 259 1.7 6.1 0.00 0.70 0.26 65 1013.1
20260506154031 55 347 1.7 7.8 0.00 0.70 0.26 66 1012.6
20260506153210 54 305 1.7 7.0 0.00 0.70 0.26 64 1012.8
20260506152350 53 260 1.7 6.1 0.00 0.70 0.26 67 1012.8
20260506151530 54 21 1.7 5.2 0.00 0.70 0.26 66 1012.4
20260506150710 55 41 1.7 7.8 0.00 0.70 0.26 69 1012.5
20260506145850 53 16 2.6 11.3 0.00 0.70 0.26 68 1012.2
20260506145029 52 14 1.7 8.7 0.00 0.70 0.26 69 1012.0
20260506144209 52 9 0.9 7.8 0.00 0.70 0.26 76 1012.3
20260506143349 52 9 0.9 6.1 0.00 0.70 0.26 78 1012.5
20260506142529 51 9 0.9 7.8 0.00 0.70 0.26 79 1012.1
20260506141709 50 350 1.7 10.4 0.00 0.70 0.26 79 1012.1
20260506140849 50 2 1.7 4.3 0.00 0.70 0.26 81 1011.8
20260506140029 50 359 0.9 5.2 0.00 0.70 0.26 85 1011.6
20260506135208 48 355 1.7 7.8 0.00 0.70 0.26 83 1011.5
20260506134348 48 281 1.7 6.1 0.00 0.70 0.26 87 1011.8
20260506133528 48 322 1.7 5.2 0.00 0.70 0.26 91 1011.5
20260506132708 47 1 1.7 6.1 0.00 0.70 0.26 95 1011.3
20260506131847 47 7 0.9 7.0 0.00 0.70 0.26 98 1011.3
20260506131027 46 12 1.7 7.0 0.00 0.70 0.26 99 1011.4
20260506130207 46 84 0.9 7.0 0.00 0.70 0.26 99 1011.5
20260506125347 46 216 0.0 2.6 0.00 0.70 0.26 99 1011.4
20260506124526 45 331 0.9 4.3 0.00 0.70 0.26 99 1011.4
20260506123706 45 243 0.9 3.5 0.00 0.70 0.26 99 1011.3
20260506122846 46 351 0.9 5.2 0.00 0.70 0.26 99 1010.6
20260506122026 46 224 0.0 3.5 0.00 0.70 0.26 99 1010.3
20260506121206 46 17 0.9 5.2 0.00 0.70 0.26 99 1010.3
20260506120345 46 159 0.0 2.6 0.00 0.70 0.26 99 1010.4
20260506115525 46 31 0.0 4.3 0.00 0.70 0.26 99 1010.4
20260506114705 46 61 0.9 4.3 0.00 0.70 0.26 99 1010.0
20260506113845 46 227 0.9 4.3 0.00 0.70 0.26 99 1010.6
20260506113025 46 200 0.9 4.3 0.00 0.70 0.26 99 1010.3
20260506112205 46 17 0.9 6.1 0.00 0.70 0.26 99 1009.8
20260506111344 46 24 0.9 5.2 0.00 0.70 0.26 99 1008.9
20260506110524 46 12 0.9 5.2 0.00 0.70 0.26 99 1009.2
20260506105704 46 330 0.9 5.2 0.00 0.70 0.26 99 1009.2
20260506104844 46 35 0.9 6.1 0.01 0.70 0.26 99 1009.1
20260506104024 46 42 0.9 6.1 0.00 0.70 0.26 99 1009.2
20260506103204 46 89 0.9 4.3 0.00 0.70 0.26 99 1009.3
20260506102343 46 50 0.9 5.2 0.01 0.70 0.26 99 1009.1
20260506101523 46 345 0.9 5.2 0.01 0.70 0.26 99 1009.2
20260506100703 46 27 0.9 3.5 0.01 0.70 0.26 99 1008.5
20260506095843 46 20 0.9 6.1 0.01 0.70 0.26 99 1008.0
20260506095023 46 15 1.7 6.1 0.01 0.70 0.26 99 1008.3
20260506094203 46 31 1.7 7.8 0.02 0.70 0.26 99 1008.2
20260506093342 46 43 0.9 5.2 0.02 0.70 0.26 99 1008.2
20260506092522 46 34 0.9 6.1 0.03 0.69 0.25 99 1007.9
20260506091702 46 16 0.9 7.0 0.04 0.69 0.25 99 1008.3
20260506090842 46 9 0.9 8.7 0.06 0.69 0.25 99 1008.4
20260506090022 46 25 1.7 8.7 0.06 0.69 0.25 99 1007.9
20260506085202 46 22 0.9 4.3 0.06 0.69 0.25 99 1008.2
20260506084342 46 26 0.9 4.3 0.05 0.68 0.24 99 1008.3
20260506083522 46 8 1.7 7.8 0.05 0.68 0.24 99 1008.7
20260506082701 46 354 1.7 7.8 0.04 0.67 0.23 99 1008.4
20260506081841 46 27 1.7 9.6 0.03 0.65 0.21 99 1008.0
20260506081021 46 6 1.7 9.6 0.02 0.64 0.20 99 1008.4
20260506080201 46 10 1.7 9.6 0.02 0.63 0.19 99 1008.0
20260506072840 46 8 1.7 6.1 0.07 0.63 0.19 99 1007.4
20260506072020 46 11 1.7 9.6 0.08 0.63 0.19 99 1007.8
20260506071200 47 3 1.7 6.1 0.09 0.62 0.18 99 1007.8
20260506070340 47 7 0.9 5.2 0.10 0.61 0.17 99 1007.5
20260506062159 48 11 1.7 10.4 0.07 0.54 0.10 99 1007.9
20260506061339 48 291 0.9 6.1 0.07 0.54 0.09 99 1007.9
20260506060519 48 329 0.9 5.2 0.07 0.52 0.07 99 1008.1
20260506050658 49 17 0.9 6.1 0.01 0.45 0.01 99 1007.8
20260506045017 49 23 0.9 5.2 0.00 0.44 0.00 99 1007.9
20260506044157 49 31 0.9 5.2 0.00 0.44 0.00 99 1008.2
20260506043337 49 35 1.7 6.1 0.01 0.44 0.00 99 1008.1
20260506042517 50 12 0.9 4.3 0.02 0.44 0.00 99 1007.9
20260506041657 50 23 1.7 6.1 0.03 0.44 0.00 99 1008.0
20260506040836 50 44 1.7 5.2 0.06 0.44 0.00 99 1008.1
20260506040016 50 52 0.9 3.5 0.08 0.44 0.00 99 1008.4
20260506035156 50 15 1.7 7.8 0.11 0.44 0.44 99 1008.3
20260506034335 50 14 1.7 7.8 0.11 0.44 0.44 99 1008.4
20260506033515 50 13 1.7 8.7 0.11 0.43 0.43 99 1008.5
20260506032655 50 13 1.7 8.7 0.11 0.43 0.43 99 1008.5
20260506031835 51 344 1.7 6.1 0.11 0.41 0.41 99 1008.8
20260506031015 52 292 1.7 7.0 0.10 0.39 0.39 99 1008.9
20260506030155 53 252 1.7 7.8 0.08 0.36 0.36 99 1009.2
20260506025335 54 289 1.7 8.7 0.07 0.34 0.34 99 1009.0
20260506024514 58 269 0.9 4.3 0.07 0.32 0.32 99 1009.0
20260506023654 58 233 0.9 5.2 0.09 0.32 0.32 99 1008.4
20260506022834 59 210 0.9 5.2 0.09 0.31 0.31 99 1008.3
20260506022014 59 174 0.0 1.7 0.10 0.30 0.30 99 1008.5
20260506021154 59 154 0.0 1.7 0.09 0.29 0.29 99 1008.7
20260506020334 59 170 0.0 0.9 0.09 0.28 0.28 99 1008.4
20260506015513 59 173 0.0 0.9 0.08 0.27 0.27 99 1008.7
20260506014653 59 261 0.0 0.9 0.06 0.25 0.25 99 1008.5
20260506013833 59 160 0.0 0.9 0.04 0.23 0.23 99 1008.7
20260506013013 59 118 0.0 0.9 0.04 0.22 0.22 99 1008.5
20260506012152 59 96 0.0 0.9 0.04 0.21 0.21 99 1008.3
20260506011332 59 94 0.0 0.9 0.03 0.20 0.20 99 1008.0
20260506010512 59 166 0.0 2.6 0.03 0.20 0.20 99 1007.7
20260506005652 59 176 0.9 5.2 0.03 0.19 0.19 99 1007.9
20260506004832 60 181 0.0 3.5 0.04 0.19 0.19 99 1007.9
20260506004012 60 142 0.9 3.5 0.04 0.19 0.19 99 1008.0
20260506003151 60 118 0.0 3.5 0.04 0.18 0.18 99 1008.2
20260506002331 60 175 0.0 2.6 0.03 0.17 0.17 99 1008.1
20260506001511 60 186 0.9 3.5 0.03 0.17 0.17 99 1008.0
20260506000651 60 178 0.9 3.5 0.04 0.17 0.17 99 1008.1
20260505235831 60 176 0.9 3.5 0.03 0.17 0.17 99 1008.3